Regional Weather Roundup
Issued by NWS

Home | Current Version | Previous Version | Graphics & Text | Print | Product List | Glossary On
Versions: 1 2 3 4 5 6 7 8 9 10 11 12 13 14 15 16 17 18 19 20 21 22 23 24 25 26 27 28 29 30 31 32 33 34 35 36 37 38 39 40 41 42 43 44 45 46 47 48 49 50
000
ASUS43 KIND 310609
RWRIN

WEATHER ROUNDUP FOR INDIANA
NATIONAL WEATHER SERVICE INDIANAPOLIS IN
200 AM EDT FRI JUL 31 2015

NOTE: "FAIR" INDICATES FEW OR NO CLOUDS BELOW 12,000 FEET WITH NO
SIGNIFICANT WEATHER AND/OR OBSTRUCTIONS TO VISIBILITY.

* - STATION DOES NOT REPORT WEATHER SUCH AS PRECIPITATION OR FOG.

+ - STATION NOT QUALITY CONTROLLED BY THE NATIONAL WEATHER SERVICE.
    USE DATA WITH CAUTION...ESPECIALLY DEWPOINT AND RELATIVE
    HUMIDITY OBSERVATIONS.

INZ001>003-010>013-019-020-310700-
NORTHWEST INDIANA

CITY           SKY/WX    TMP DP  RH WIND       PRES   REMARKS
GARY /AIRPORT/ CLEAR     71  64  76 SW5       30.03S
KNOX *+        CLEAR     66  61  82 SW7       30.01F
LA PORTE +     PTCLDY    68  61  77 W5        30.03R
6HR MIN TEMP:  65; 6HR MAX TEMP:  83;

MICHIGAN CITY+ CLEAR     68  59  73 SW3       30.02S
MONTICELLO +   CLEAR     67  64  90 CALM      30.04S
6HR MIN TEMP:  67; 6HR MAX TEMP:  81;

RENSSELAER +   CLEAR     68  66  94 SW5       30.05R
VALPARAISO     CLEAR     67  61  81 W7        30.03S
6HR MIN TEMP:  67; 6HR MAX TEMP:  82;


$$

LMZ046-743>745-310700-
SOUTHERN LAKE MICHIGAN

STATION/POSITION TIME  TEMP    WIND        PRES    WAVE
                       AIR SEA DIR/SP/G            HT
                 (UTC) (F)     (DEG/KT/KT) (MB)    (FT)
BURNS HARBOR     0500   77     230/  9/ 11 1016.6S
MICHIGAN CITY    0500   76     220/ 12/ 14   N/A
5NW MICH CITY    0600   76 74  280/ 10/ 14   N/A     2

$$

INZ004-005-014>016-021>024-310700-
NORTH CENTRAL INDIANA

CITY           SKY/WX    TMP DP  RH WIND       PRES   REMARKS
GOSHEN         CLEAR     65  60  84 SW6       30.01F
6HR MIN TEMP:  63; 6HR MAX TEMP:  78;

LOGANSPORT +   CLEAR     63  59  88 SW3       30.05S
PERU/GRISSOM   CLEAR     64  61  87 SW3       30.04S
6HR MIN TEMP:  64; 6HR MAX TEMP:  81;

ROCHESTER +    CLEAR     70  63  78 SW3       30.03F
SOUTH BEND     CLEAR     68  60  75 SW7       30.02S
6HR MIN TEMP:  68; 6HR MAX TEMP:  82;

WARSAW +       MOCLDY    68  61  77 SW3       30.02F

$$

INZ006>009-017-018-025>027-310700-
NORTHEAST INDIANA

CITY           SKY/WX    TMP DP  RH WIND       PRES   REMARKS
ANGOLA *+      PTCLDY    64  57  77 CALM      30.01F
AUBURN +       CLEAR     68  55  64 SW6       30.03S
FORT WAYNE     CLEAR     65  60  84 SW5       30.03F
6HR MIN TEMP:  65; 6HR MAX TEMP:  80;

HUNTINGTON +   CLEAR     67  61  80 SW3       30.03S
6HR MIN TEMP:  66; 6HR MAX TEMP:  79;


$$

INZ028-029-035-036-043>045-051>053-310700-
WEST CENTRAL INDIANA

CITY           SKY/WX    TMP DP  RH WIND       PRES   REMARKS
CRAWFORDSVL +  PTCLDY    63  63 100 CALM        N/A
6HR MIN TEMP:  62; 6HR MAX TEMP:  77; 6HR PCP:  0.01;

GREENCASTLE +  CLEAR     64  59  82 CALM      30.09S
LAFAYETTE      CLEAR     65  64  97 CALM      30.05S
6HR MIN TEMP:  65; 6HR MAX TEMP:  80;

TERRE HAUTE    CLEAR     63  61  93 CALM      30.08S
6HR MIN TEMP:  63; 6HR MAX TEMP:  83;


$$

INZ030>032-037>040-046>048-054>057-064-065-310700-
CENTRAL INDIANA

CITY           SKY/WX    TMP DP  RH WIND       PRES   REMARKS
FISHERS *+     CLEAR     64  64 100 CALM      30.07S
FRANKFORT +    CLEAR    N/A N/A N/A SW3       30.08S
GREENWOOD *+   CLEAR     63  59  88 CALM      30.08S
INDIANAPOLIS   NOT AVBL
-EAGLE CREEK   CLEAR     68  62  81 CALM      30.06S
6HR MIN TEMP:  68; 6HR MAX TEMP:  81;

KOKOMO *+      CLEAR     66  61  82 W8        30.05S
6HR MIN TEMP:  66; 6HR MAX TEMP:  82;

MARION +       CLEAR     63  59  87 W3        30.05F
MT COMFORT *+  CLEAR     64 N/A N/A CALM      30.07S
SHELBYVILLE    CLEAR     65  61  87 SW3       30.06F
6HR MIN TEMP:  65; 6HR MAX TEMP:  81;

ZIONSVILLE +   CLEAR     64  61  88 W5        30.08S
6HR MIN TEMP:  64; 6HR MAX TEMP:  80;


$$

INZ033-034-041-042-049-050-058-059-310700-
EAST CENTRAL INDIANA

CITY           SKY/WX    TMP DP  RH WIND       PRES   REMARKS
MUNCIE         CLEAR     67  60  78 W7        30.05F
6HR MIN TEMP:  66; 6HR MAX TEMP:  78;


$$

INZ060-061-067>069-081>083-085>088-310700-
SOUTHWEST INDIANA

CITY           SKY/WX    TMP DP  RH WIND       PRES   REMARKS
EVANSVILLE     CLEAR     74  64  71 NW3       30.09S
6HR MIN TEMP:  70; 6HR MAX TEMP:  84;

HUNTINGBURG *+ CLEAR     66  63  88 CALM      30.09S
6HR MIN TEMP:  66; 6HR MAX TEMP:  82;

WASHINGTON +   CLEAR     69  65  85 W5        30.08S
6HR MIN TEMP:  69; 6HR MAX TEMP:  80;


$$

INZ062-063-066-070>080-084-089>092-310700-
SOUTH CENTRAL AND SOUTHEAST INDIANA

CITY           SKY/WX    TMP DP  RH WIND       PRES   REMARKS
BLOOMINGTON    CLEAR     64  62  93 CALM      30.09S
6HR MIN TEMP:  64; 6HR MAX TEMP:  80;

MADISON *+     CLEAR     63  61  94 CALM      30.10F
NORTH VERNON + CLEAR     64  64 100 CALM      30.08F
SEYMOUR +      CLEAR     63  63 100 CALM      30.07F

$$



USA.gov is the U.S. government's official web portal to all federal, state and local government web resources and services.